HISPASAT 36W-1

Last updated on Sun Apr 12 2026 00:02:54 GMT+0000 (Coordinated Universal Time)

1 41942U 17006A 26100.87182181 -.00000243 00000+0 00000+0 0 9997 2 41942 0.0107 34.2600 0000922 347.8833 94.8108 1.00272774 33572
UTC large
Height (km)
Speed (km/s)
/
Latitude / Longitude
Inclination (degrees)
Orbital Period (minutes)
Azimuth
Elevation
Range (km)
Doppler Factor

Next 0 passes for location: London (51.5072 / 0.1276)

Sorry there are no passes over London.
HISPASAT 36W-1